Ahoskie, NC

6:24 AM EDT on September 18, 2019 (GMT -0400)
Tri County

Weather History for KASJ - August, 2019

Change the Weather History Date:

Wednesday, August 21, 2019

  Actual Average (KEMV) Record (KEMV)
Temperature  
Mean Temperature 80 °F -  
Max Temperature 87 °F 86 °F 103 °F (1983)
Min Temperature 73 °F 63 °F 57 °F (1984)
Cooling Degree Days 15    
Growing Degree Days 30 (Base 50)    
Moisture  
Dew Point 75 °F    
Average Humidity 86    
Maximum Humidity 100    
Minimum Humidity 63    
Precipitation  
Precipitation 0.10 in - - ()
Sea Level Pressure  
Sea Level Pressure 30.02 in    
Wind  
Wind Speed 4 mph (SSW)    
Max Wind Speed 10 mph    
Max Gust Speed 20 mph    
Visibility 10 miles    
Events Rain    
Averages and records for this station are not official NWS values.
T = Trace of Precipitation, MM = Missing Value Source: NWS Daily Summary

Daily Weather History Graph

Daily Weather History Graph

Search for Another Location

Airport or City:

Astronomy

Aug. 21, 2019 Rise Set
Actual Time 6:31 AM EDT 7:51 PM EDT
Civil Twilight 6:04 AM EDT 8:18 PM EDT
Nautical Twilight 5:32 AM EDT 8:50 PM EDT
Astronomical Twilight 4:58 AM EDT 9:24 PM EDT
Moon 11:18 PM EDT (8/21) 11:55 AM EDT (8/21)
Length of Visible Light 14h 14m
Length of Day
13h 20m
Waning Gibbous, 69% of the Moon is Illuminated
Aug 21
Waning Gibbous
Aug 23
Last Quarter
Aug 30
New
Sep 5
First Quarter
Sep 14
Full

Hourly Weather History & Observations

Time (EDT) Temp. Heat Index Dew Point Humidity Pressure Visibility Wind Dir Wind Speed Gust Speed Precip Events Conditions
12:35 AM 77.0 °F - 74.5 °F 92% 30.09 in 10.0 mi Calm Calm - N/A   Clear
12:55 AM 77.9 °F - 74.3 °F 89% 30.09 in 10.0 mi SSW 3.5 mph - N/A   Clear
1:15 AM 77.9 °F - 74.5 °F 89% 30.08 in 10.0 mi SSW 3.5 mph - N/A   Clear
1:35 AM 77.9 °F - 74.7 °F 90% 30.08 in 10.0 mi SW 3.5 mph - N/A   Clear
1:55 AM 77.9 °F - 74.8 °F 90% 30.08 in 10.0 mi SSW 3.5 mph - N/A   Scattered Clouds
2:15 AM 77.7 °F - 74.7 °F 90% 30.08 in 10.0 mi Calm Calm - N/A   Scattered Clouds
2:35 AM 77.0 °F - 74.8 °F 93% 30.07 in 10.0 mi South 3.5 mph - N/A   Scattered Clouds
2:55 AM 76.3 °F - 75.2 °F 96% 30.07 in 10.0 mi South 3.5 mph - N/A   Clear
3:35 AM 75.4 °F - 75.4 °F 100% 30.07 in 10.0 mi Calm Calm - N/A   Clear
3:55 AM 74.3 °F - 74.3 °F 100% 30.07 in 10.0 mi South 4.6 mph - N/A   Clear
4:15 AM 75.0 °F - 75.0 °F 100% 30.06 in 10.0 mi South 4.6 mph - N/A   Clear
4:35 AM 75.2 °F - 75.2 °F 100% 30.06 in 10.0 mi South 3.5 mph - N/A   Clear
5:15 AM 74.8 °F - 74.8 °F 100% 30.06 in 10.0 mi Calm Calm - N/A   Clear
5:35 AM 74.3 °F - 74.3 °F 100% 30.06 in 10.0 mi Calm Calm - N/A   Clear
6:15 AM 74.1 °F - 74.1 °F 100% 30.06 in 10.0 mi Calm Calm - N/A   Clear
6:35 AM 73.0 °F - 73.0 °F 100% 30.06 in 7.0 mi Calm Calm - N/A   Clear
6:55 AM 73.2 °F - 73.2 °F 100% 30.06 in 7.0 mi Calm Calm - N/A   Clear
7:15 AM 73.0 °F - 73.0 °F 100% 30.06 in 7.0 mi SSE 3.5 mph - N/A   Clear
7:35 AM 73.9 °F - 73.9 °F 100% 30.06 in 7.0 mi SSE 4.6 mph - N/A   Clear
7:55 AM 74.7 °F - 74.7 °F 100% 30.06 in 10.0 mi South 5.8 mph - N/A   Clear
8:15 AM 75.7 °F - 75.7 °F 100% 30.06 in 10.0 mi South 5.8 mph - N/A   Clear
8:35 AM 77.7 °F - 77.0 °F 98% 30.06 in 10.0 mi South 6.9 mph - N/A   Scattered Clouds
8:55 AM 78.8 °F - 77.0 °F 94% 30.06 in 10.0 mi SSW 6.9 mph - N/A   Mostly Cloudy
9:15 AM 78.8 °F - 76.3 °F 92% 30.06 in 10.0 mi SSW 5.8 mph - N/A   Overcast
9:35 AM 79.0 °F - 75.9 °F 90% 30.05 in 10.0 mi South 5.8 mph - N/A   Mostly Cloudy
10:15 AM 81.0 °F 86.9 °F 75.4 °F 83% 30.05 in 10.0 mi SSW 8.1 mph - N/A   Overcast
10:35 AM 82.0 °F 89.7 °F 76.5 °F 83% 30.04 in 10.0 mi SW 8.1 mph - N/A   Overcast
10:55 AM 82.8 °F 90.4 °F 75.6 °F 79% 30.04 in 10.0 mi SSW 8.1 mph - N/A   Mostly Cloudy
11:15 AM 82.8 °F 89.2 °F 74.1 °F 75% 30.03 in 10.0 mi South 8.1 mph 17.3 mph N/A   Mostly Cloudy
11:35 AM 81.9 °F 87.7 °F 73.9 °F 77% 30.03 in 10.0 mi SW 8.1 mph - N/A   Overcast
11:55 AM 78.1 °F - 75.4 °F 91% 30.04 in 10.0 mi West 4.6 mph - N/A Rain Light Rain
12:15 PM 78.3 °F - 77.0 °F 96% 30.03 in 5.0 mi WSW 8.1 mph - 0.02 in Rain Heavy Rain
12:35 PM 75.0 °F - 75.0 °F 100% 30.04 in 3.0 mi South 8.1 mph - 0.09 in Rain Heavy Rain
12:55 PM 75.6 °F - 75.6 °F 100% 30.02 in 10.0 mi South 4.6 mph - 0.10 in   Mostly Cloudy
1:15 PM 81.3 °F 90.4 °F 79.3 °F 94% 30.01 in 10.0 mi SSW 5.8 mph - N/A   Scattered Clouds
1:35 PM 83.1 °F 92.3 °F 77.0 °F 82% 30.00 in 10.0 mi SSW 6.9 mph - N/A   Scattered Clouds
1:55 PM 83.8 °F 91.4 °F 74.8 °F 74% 29.99 in 10.0 mi SW 10.4 mph 16.1 mph N/A   Mostly Cloudy
2:15 PM 84.9 °F 92.5 °F 74.1 °F 70% 29.99 in 10.0 mi SW 10.4 mph 16.1 mph N/A   Scattered Clouds
2:35 PM 85.5 °F 93.8 °F 74.5 °F 70% 29.98 in 10.0 mi SW 10.4 mph 19.6 mph N/A   Scattered Clouds
2:55 PM 85.6 °F 92.2 °F 72.7 °F 65% 29.97 in 10.0 mi SW 9.2 mph 17.3 mph N/A   Scattered Clouds
3:15 PM 86.4 °F 93.4 °F 72.9 °F 64% 29.97 in 10.0 mi SW 9.2 mph 17.3 mph N/A   Scattered Clouds
3:35 PM 86.5 °F 94.2 °F 73.4 °F 65% 29.97 in 10.0 mi WSW 6.9 mph - N/A   Scattered Clouds
3:55 PM 87.3 °F 94.9 °F 73.2 °F 63% 29.97 in 10.0 mi WSW 9.2 mph - N/A   Mostly Cloudy
4:15 PM 87.8 °F 96.1 °F 73.8 °F 63% 29.97 in 10.0 mi SW 4.6 mph - N/A   Scattered Clouds
4:35 PM 87.6 °F 95.7 °F 73.8 °F 63% 29.96 in 10.0 mi WSW 5.8 mph - N/A   Clear
4:55 PM 87.6 °F 96.2 °F 73.9 °F 64% 29.97 in 10.0 mi WSW 5.8 mph - N/A   Clear
5:15 PM 86.9 °F 95.4 °F 74.1 °F 66% 29.97 in 10.0 mi SW 5.8 mph - N/A   Scattered Clouds
5:35 PM 87.3 °F 95.3 °F 73.8 °F 64% 29.97 in 10.0 mi SSW 5.8 mph - N/A   Scattered Clouds
6:15 PM 86.9 °F 95.9 °F 74.7 °F 67% 29.96 in 10.0 mi SSW 3.5 mph - N/A   Clear
6:35 PM 86.4 °F 96.0 °F 75.6 °F 70% 29.95 in 10.0 mi South 4.6 mph - N/A   Clear
6:55 PM 85.5 °F 94.6 °F 75.6 °F 72% 29.95 in 10.0 mi South 4.6 mph - N/A   Clear
7:15 PM 84.4 °F 93.5 °F 75.9 °F 76% 29.95 in 10.0 mi South 3.5 mph - N/A   Clear
7:55 PM 81.5 °F 89.0 °F 77.0 °F 86% 29.96 in 10.0 mi Calm Calm - N/A   Clear
8:15 PM 80.2 °F 86.3 °F 77.0 °F 90% 29.97 in 10.0 mi South 5.8 mph - N/A   Clear
8:35 PM 79.7 °F - 77.2 °F 92% 29.97 in 10.0 mi South 5.8 mph - N/A   Clear
8:55 PM 80.2 °F 86.3 °F 77.2 °F 90% 29.97 in 10.0 mi South 5.8 mph - N/A   Clear
9:15 PM 80.2 °F 86.3 °F 77.0 °F 90% 29.96 in 10.0 mi South 5.8 mph - N/A   Clear
9:35 PM 79.9 °F - 76.6 °F 90% 29.97 in 10.0 mi South 5.8 mph - N/A   Clear
9:55 PM 79.2 °F - 77.0 °F 93% 29.97 in 10.0 mi South 4.6 mph - N/A   Clear
10:15 PM 79.0 °F - 77.0 °F 94% 29.98 in 10.0 mi South 4.6 mph - N/A   Clear
10:35 PM 79.0 °F - 76.8 °F 93% 29.98 in 10.0 mi SSW 5.8 mph - N/A   Clear
10:55 PM 79.2 °F - 76.3 °F 91% 29.98 in 10.0 mi SSW 3.5 mph - N/A   Clear
11:15 PM 79.2 °F - 76.3 °F 91% 29.98 in 10.0 mi SSW 5.8 mph - N/A   Clear
11:35 PM 78.8 °F - 75.7 °F 90% 29.99 in 10.0 mi WSW 4.6 mph - N/A   Clear
11:55 PM 78.8 °F - 70.5 °F 76% 30.00 in 10.0 mi WSW 6.9 mph - N/A   Clear